• Join FlightAware (Why Join?)
  • Login
  • US Flag 
05:53AM EDT


 

Airport Tracker/Info


-or-


 

Live Flight TrackerFlight Track Log ✈ RPA4907 ✈ 08-Jul-2013 ✈ KBWI - KEWR

Flight Track Log - Related Links

Times and Time Zones

All times are in EDT time to prevent confusion due to time zone crossing. See the RPA4907 flight status page for this flight to view local times or setup timezone preferences in your user account.

Time Position Orientation Groundspeed Altitude Reporting Facility
EDT Latitude Longitude Course Direction KTS MPH feet Rate Location/Type
02:25PM 39.2333 -76.7167 360° North 229 264 3,700  Level Potomac TRACON
02:26PM 39.1500 -76.2613 90° East  Level FlightAware Approximate
02:26PM 39.2500 -76.6500 72° East 248 285 5,900  Level Potomac TRACON
02:27PM 39.1999 -76.1501 46° Northeast  Level FlightAware Approximate
02:27PM 39.2333 -76.5667 104° East 247 284 8,000  Level Potomac TRACON
02:28PM 39.2799 -76.0601 46° Northeast  Level FlightAware Approximate
02:28PM 39.2167 -76.4833 104° East 250 288 10,100  Level Potomac TRACON
02:29PM 39.3576 -75.9662 42° Northeast  Level FlightAware Approximate
02:29PM 39.1833 -76.3833 113° Southeast 277 319 11,000  Level Potomac TRACON
02:30PM 39.2167 -76.2833 67° East 338 389 11,000  Level Potomac TRACON
02:31PM 39.2667 -76.1667 61° Northeast 336 387 11,000  Level Potomac TRACON
02:33PM 39.3833 -75.9500 55° Northeast 308 354 11,000  Level Philadelphia TRACON
02:34PM 39.4500 -75.8833 38° Northeast 304 350 11,000  Level Philadelphia TRACON
02:35PM 39.5167 -75.8167 38° Northeast 309 356 11,000  Level Philadelphia TRACON
02:36PM 39.5667 -75.7167 57° Northeast 317 365 11,000  Level Philadelphia TRACON
02:37PM 39.6000 -75.6167 67° East 308 354 11,000  Level Philadelphia TRACON
02:38PM 39.6333 -75.5167 67° East 312 359 11,000  Level Philadelphia TRACON
02:39PM 39.6667 -75.4167 67° East 304 350 11,000  Level Philadelphia TRACON
02:40PM 39.6833 -75.3167 78° East 311 358 11,000 -60 Level Philadelphia TRACON
02:41PM 39.7000 -75.2167 78° East 311 358 10,900 -480 Descending Philadelphia TRACON
02:42PM 39.7167 -75.0833 81° East 313 360 10,000 -900 Descending Philadelphia TRACON
02:43PM 39.7333 -74.9667 79° East 308 354 9,000 -480 Descending Philadelphia TRACON
02:44PM 39.7667 -74.8833 62° Northeast 293 337 9,000 -60 Level Philadelphia TRACON
02:45PM 39.8333 -74.8500 21° North 277 319 8,900 -540 Descending Philadelphia TRACON
02:46PM 39.9167 -74.8000 25° Northeast 276 318 8,000 -720 Descending Philadelphia TRACON
02:48PM 40.0167 -74.7000 37° Northeast 272 313 7,000 -360 Descending New York TRACON
02:49PM 40.0667 -74.6333 46° Northeast 277 319 7,100  Climbing New York TRACON
02:50PM 40.1333 -74.5833 30° Northeast 273 314 7,000 -60 Descending New York TRACON
02:51PM 40.1833 -74.5167 46° Northeast 275 316 7,000  Level New York TRACON
02:52PM 40.2500 -74.4833 21° North 270 311 7,000  Level New York TRACON
02:53PM 40.3000 -74.5500 315° West 257 296 7,000 -240 Level New York TRACON
02:54PM 40.3667 -74.6167 323° Northwest 261 300 6,600 -480 Descending New York TRACON
02:55PM 40.4167 -74.6500 333° Northwest 272 313 6,100 -300 Descending New York TRACON
02:56PM 40.5000 -74.6333 North 272 313 6,000  Descending New York TRACON
02:57PM 40.5667 -74.6167 11° North 265 305 6,100  Climbing New York TRACON
02:58PM 40.6500 -74.6000 North 265 305 6,000  Descending New York TRACON
02:59PM 40.7000 -74.5833 14° North 263 303 6,100 -120 Climbing New York TRACON
03:00PM 40.7833 -74.5833 360° North 260 299 5,800 -540 Descending New York TRACON
03:01PM 40.8500 -74.5667 11° North 258 297 5,100 -420 Descending New York TRACON
03:02PM 40.9167 -74.5500 11° North 259 298 5,000  Descending New York TRACON
03:03PM 40.9667 -74.4667 52° Northeast 270 311 5,100  Climbing New York TRACON
03:04PM 41.0000 -74.3667 66° East 268 308 5,100 -480 Level New York TRACON
03:05PM 41.0333 -74.2833 62° Northeast 241 277 4,100 -540 Descending New York TRACON
03:06PM 41.0167 -74.2167 108° East 211 243 4,100 -60 Level New York TRACON
03:07PM 40.9667 -74.1667 143° Southeast 200 230 4,000 -180 Descending New York TRACON
03:08PM 40.9333 -74.1333 143° Southeast 197 227 3,800 -480 Descending New York TRACON
03:09PM 40.8833 -74.0833 143° Southeast 198 228 3,100 -480 Descending New York TRACON
03:10PM 40.8333 -74.0833 180° South 193 222 3,000 -120 Descending New York TRACON